Miscellaneous Local Product
Issued by NWS North Platte, NE

Home | Current Version | Previous Version | Text Only | Print | Product List | Glossary On
Versions: 1 2 3 4 5 6 7 8 9 10 11 12 13 14 15 16 17 18 19 20 21 22 23 24 25 26 27 28 29 30 31 32 33 34 35 36 37 38 39 40 41 42 43 44 45 46 47 48 49 50
000
AXUS43 KLBF 231410
MISLBF


WESTERN AND NORTH CENTRAL NEBRASKA HOURLY WEATHER ROUNDUP
NATIONAL WEATHER SERVICE NORTH PLATTE NE
900 AM CDT WED APR 23 2014

***STATIONS NOT REPORTING VARIABLES SUCH AS SKY/WEATHER OR
PRESSURE ARE PROVIDED BY THE NEBRASKA DEPARTMENT OF
ROADS...RAWS...AND APRS NETWORKS...AND ARE NOT UNDER
NATIONAL WEATHER SERVICE QUALITY CONTROL***

...OBSERVATIONS IN AND NEAR THE EASTERN PANHANDLE OF NEBRASKA...

CITY           SKY/WX    TMP DP  RH WIND       PRES   REMARKS
PINE RIDGE     CLOUDY    58  46  64 W8        29.52R
CHADRON        CLOUDY    57  45  64 W7        29.52S
ALLIANCE       CLOUDY    53  47  79 MISG      29.56R
SIDNEY         CLOUDY    54  42  64 W12       29.59R
WHITECLAY        N/A     59  43  55 W7          N/A
CRESCENT LAKE    N/A     54  47  77 SW3         N/A
LISCO            N/A     57  46  67 CALM        N/A
BIG SPRINGS      N/A     54  46  74 S5          N/A
LEWELLEN         N/A     54  46  73 CALM        N/A
$$

...OBSERVATIONS IN SOUTHWEST NEBRASKA AND FAR NORTHEAST COLORADO...

CITY           SKY/WX    TMP DP  RH WIND       PRES   REMARKS
WRAY           FAIR      64  43  45 S23G30    29.53S
HOLYOKE        FAIR      59  45  58 NW6       29.54R
IMPERIAL       CLOUDY    61  44  53 SE3       29.54R
OGALLALA       CLOUDY    53  44  71 E5        29.54S
NORTH PLATTE   CLOUDY    57  42  57 SE14      29.56F
MCCOOK         CLOUDY    61  47  59 S18       29.57F
LEXINGTON      PTSUNNY   59  42  52 SE21G29   29.62F
PAXTON           N/A     53  45  74 E3          N/A
SUTHERLAND       N/A     53  45  73 SE10        N/A
GOTHENBURG       N/A     58  43  58 SE12G21     N/A
CALLAWAY         N/A     52  39  61 S26         N/A
$$

...OBSERVATIONS IN NORTH CENTRAL NEBRASKA...

CITY           SKY/WX    TMP DP  RH WIND       PRES   REMARKS
VALENTINE      CLOUDY    58  36  43 S15       29.54R
THEDFORD       CLOUDY    57  38  48 S22G30    29.54F
AINSWORTH      CLOUDY    58  38  47 S35G41    29.52F
O`NEILL        CLOUDY    55  37  50 SE24G31   29.64F
ORD            CLOUDY    55  38  52 SE21G28   29.65F
BROKEN BOW     CLOUDY    56  38  50 S29G39    29.62F
BROWNLEE         N/A     59  38  45 S28         N/A
SPRINGVIEW       N/A     57  39  51 SE10G20     N/A
DUNNING          N/A     56  38  49 S22         N/A
BREWSTER         N/A     60  39  47 S28         N/A
ROSE             N/A     61  42  50 E30         N/A
NEWPORT          N/A     56  40  53 S24         N/A
COMSTOCK         N/A     62  41  46 S25         N/A
CHAMBERS         N/A     55  37  51 SE9G24      N/A
EWING            N/A     55  40  56 SE14G25     N/A
$$

...SOME WEATHER OBSERVATIONS FROM AROUND THE REGION...

CITY           SKY/WX    TMP DP  RH WIND       PRES   REMARKS
DENVER         MOSUNNY   57  29  34 SW12      29.63R
LARAMIE        CLOUDY    41  28  60 SW16      29.76R
CHEYENNE       PTSUNNY   48  32  53 NW23G37   29.68R
SCOTTSBLUFF    CLOUDY    56  40  55 W17       29.59R
RAPID CITY     CLOUDY    56  45  66 E5        29.45R
PIERRE         CLOUDY    53  35  50 SE26      29.55S
WINNER         FAIR      57  35  43 SE22      29.55R
SIOUX FALLS    CLOUDY    50  35  56 SE24G41   29.83F
OMAHA          LGT RAIN  49  40  71 SE23      29.91F
GRAND ISLAND   CLOUDY    56  41  57 SE24G35   29.71F
KANSAS CITY    CLOUDY    54  37  52 SE12      30.02R
WICHITA        PTSUNNY   62  38  40 S20G26    29.87R
HAYS           CLOUDY   N/A N/A N/A S24       29.72F
LIBERAL        PTSUNNY   64  45  48 S18       29.77S
GOODLAND       CLOUDY    64  43  46 SW21G36   29.61S
$$



USA.gov is the U.S. government's official web portal to all federal, state and local government web resources and services.